COSMOS 252 DEB, 3569

Orbit data source: Space-Track

COSMOS 252 DEB, 3569 is space debris in LEO originally from a launch on Fri, 01 Nov 1968 UTC launched from the Tyuratam Missile And Space Complex (TTMTR). Debris objects in space refer to the collection of defunct objects orbiting the Earth. Examples of debris include non-operational satellites, rocket bodies, and fragments generated from explosions, collisions, or faulty payload assembly.

Loading next visibility...
Identifier
3569, 1968-097V
Orbit
LEO
Last TLE update
12 hours ago
Origin
Manufacturer
Unknown
Mission
Spacecraft
Bus & Motor
Unknown
Mass
Unknown
Launch date (UTC)
1968-11-01 (57 years ago)
Launch vehicle
Unknown
Launch site
Tyuratam Missile And Space Complex (TTMTR)
Object type
Payload
Rocket body
Debris
Shape & HBR
Unknown
Radar Cross Section
Small (<0.1 m²)

Expand to show TLE details & history

TLE from 12 hours ago
0 COSMOS 252 DEB
1 03569U 68097V   25181.57922428  .00002127  00000-0  43140-3 0  9996
2 03569  62.2927 324.9692 0575206  51.2197 313.8795 13.93056985769791
Epoch: 2025-06-30T13:54Z
TLE epoch observation values (Epoch: 2025-06-30T13:54:04.977Z)
Latitude
0.00001°
Longitude
-162.43854°
Altitude
642.042 km
Speed
7.679 km/s
True Right ascension
21h 39m 52s
True Declination
0° 00' 00"
Sunlit
Object was in full shadow at epoch
Visualization orbit readout
Latitude
-57.29912°
Longitude
70.65078°
Altitude
1,329.592 km
Speed
6.997 km/s
Apparent Right ascension
00h 09m 12s
Apparent Declination
-85° 55' 32"
Sunlit
Object is in daylight
Visualization observer readout
Local Sidereal Time
13:02:41
Azimuth
178.694° S
Elevation
-43.873°
Doppler factor
1
Orbital elements
Apogee altitude
1,336.489 km
Perigee altitude
497.262 km
Semi-major axis
7,295.013 km
Eccentricity
0.05752
Inclination
62.2927°
RAAN
324.9692°
Arg. of periapsis
51.2197°
True anomaly
Unknown
Mean anomaly
313.8795°
Eccentric anomaly
Unknown
Mean motion
3.48341 °/min
Orbital period
103.35 mins
BSTAR
0.0004314
Loading maneuver chart data...
Loading SW <> Apogee altitude chart data...

COSMOS 252 DEB Visibility forecast

Observer location: undefined°, undefined°

Span
Click to sort rows by Start time (UTC) header in descending order
Start Az.
Max El. time (UTC)
Max El. Az.
Max El.
End time (UTC)
End Az.
5 mins2025-07-01 10:42:43.788Z166.833° S2025-07-01 10:44:43.788Z130.105° SE22.01°2025-07-01 10:47:43.788Z66.945° ENE
5 mins2025-07-01 12:29:43.788Z272.72° WNW2025-07-01 12:31:43.788Z316.763° NNW21.82°2025-07-01 12:34:43.788Z10.735° NNE
9 mins2025-07-01 19:42:43.788Z334.241° NNW2025-07-01 19:45:43.788Z45.808° ENE43.224°2025-07-01 19:51:43.788Z137.183° SSE
6 mins2025-07-01 21:29:43.788Z276.603° WNW2025-07-01 21:32:43.788Z239.806° WSW17.725°2025-07-01 21:35:43.788Z209.265° SW
|